#timestamp,LO_Frequency,Hit,StdDev 
1552975215.5,286047002.6,N
1552975235.3,286047001.3,N
1552975255.2,286047004.4,Y
1552975275.0,286047001.9,P
1552975275.9,286047001.9,P
1552975295.8,286047002.3,P
1552975315.6,286047001.9,Y
1552975335.4,286047001.1,P
1552975355.3,286046998.2,P
1552975375.1,286047000.9,N
1552975395.9,286047000.5,N
1552975415.7,286047000.8,N
1552975435.5,286047000.2,N
1552975455.4,286047000.5,N
1552975475.2,286046998.2,N
1552975495.0,286046998.5,N
1552975495.9,286046998.5,N
1552975515.8,286047000.9,N
1552975535.6,286046998.2,N
1552975555.5,286046999.2,N
1552975575.3,286046996.5,N
1552975595.1,286046996.7,N
1552975615.9,286046996.9,N
1552975635.7,286046998.3,N
1552975655.5,286047000.1,N
1552975675.4,286046999.7,N
1552975695.2,286047002.7,N
1552975715.1,286047002.7,N
1552975716.0,286047002.7,N
1552975735.8,286047001.6,N
1552975755.6,286047002.4,N
1552975775.5,286047000.3,N
1552975795.3,286047001.2,N
1552975815.1,286046999.2,N
1552975835.9,286046999.4,N
1552975855.7,286047000.9,N
1552975875.6,286047001.2,N
1552975895.4,286047000.9,N
1552975915.2,286047002.6,N
1552975935.1,286047000.1,N
1552975936.0,286047000.1,N
1552975955.8,286047000.3,N
1552975975.6,286047000.3,N
1552975995.5,286046998.5,N
1552976045.3,286046996.6,E
1552976055.3,286047000.9,N
1552976075.1,286047001.7,P
1552976095.8,286047003.9,P
1552976115.7,286047003.1,N
1552976135.5,286047003.2,N
1552976155.4,286047004.4,Y
1552976175.2,286046998.2,P
1552976195.0,286046998.7,N
1552976195.9,286046998.7,N
1552976215.8,286047000.8,N
1552976235.6,286047001.0,N
1552976255.5,286047002.8,N
1552976275.3,286047004.4,N
1552976295.1,286047002.2,N
1552976315.9,286047002.1,N
1552976335.7,286047001.4,N
1552976355.6,286047002.1,N
1552976375.4,286047001.4,N
1552976395.2,286047004.1,N
1552976415.1,286047004.3,N
1552976416.0,286047004.3,N
1552976435.8,286047001.3,N
1552976455.6,286047002.2,N
1552976475.5,286046999.8,N
1552976495.3,286047001.7,N
1552976515.2,286047004.0,N
1552976535.0,286047001.9,N
1552976535.9,286047001.9,N
1552976555.7,286047002.7,N
1552976575.6,286047002.6,N
1552976595.4,286047001.9,N
1552976615.3,286047001.5,N
1552976635.1,286047002.8,N
1552976636.0,286047002.8,N
1552976655.8,286047001.7,N
1552976675.7,286047001.7,N
1552976695.5,286047001.8,N
1552976715.4,286047001.7,N
1552976735.2,286047002.0,N
1552976755.0,286047002.7,N
1552976755.9,286047002.7,N
1552976775.8,286047002.0,N
1552976795.6,286047001.9,N
1552976815.4,286047002.2,N
1552976835.3,286047002.3,N
1552976855.1,286047001.8,N
1552976875.9,286047004.0,Y
1552976895.7,286046998.6,P
1552976915.5,286046998.4,N
1552976935.4,286046998.4,N
1552976955.2,286047001.0,N
1552976975.0,286047000.2,N
1552976976.0,286047000.2,N
1552976995.8,286047000.0,N
1552977015.6,286046999.9,N
1552977035.5,286047002.7,N
1552977055.3,286047002.6,N
1552977075.1,286047000.2,N
1552977095.9,286047002.5,N
1552977115.7,286047002.0,N
1552977135.5,286047002.6,N
1552977155.4,286047000.1,N
1552977175.2,286047000.6,N
1552977195.1,286047000.6,N
1552977196.0,286047000.6,N
1552977215.8,286047000.7,N
1552977235.7,286046998.6,N
1552977255.5,286046998.7,N
1552977275.3,286047000.8,N
1552977295.2,286046998.9,N
1552977315.9,286047000.5,N
1552977335.7,286047000.7,N
1552977355.6,286047000.0,N
1552977375.4,286046999.9,N
1552977395.2,286047001.6,N
1552977415.1,286047003.7,N
1552977416.0,286047003.7,N
1552977435.8,286047004.1,N
1552977455.7,286047003.6,N
1552977475.5,286047001.3,N
1552977495.3,286047002.2,N
1552977515.2,286047001.3,N
1552977535.0,286047001.9,N
1552977535.9,286047001.9,N
1552977555.8,286047002.2,N
1552977575.6,286047001.6,N
1552977595.4,286047000.2,N
1552977615.3,286047001.0,N
1552977635.1,286047000.4,N
1552977655.8,286047000.6,N
1552977675.7,286047000.6,N
1552977695.5,286047001.2,N
1552977715.4,286047000.5,N
1552977735.2,286047000.1,N
1552977755.0,286047001.6,N
1552977755.9,286047001.6,N
1552977775.8,286047002.0,N
1552977795.6,286047001.6,N
1552977815.4,286047002.1,N
1552977835.3,286047002.2,N
1552977855.1,286046999.9,N
1552977875.9,286047001.7,N
1552977895.7,286047001.8,N
1552977915.5,286047001.9,N
1552977935.4,286047002.1,N
1552977955.2,286047002.3,N
1552977975.0,286047000.1,N
1552977975.9,286047000.1,N
1552977995.8,286046999.8,N
1552978015.6,286047000.2,N
1552978035.5,286047001.9,N
1552978055.3,286047004.2,Y
1552978075.1,286047002.6,P
1552978095.9,286047001.3,N
1552978115.7,286047003.8,P
1552978135.5,286047001.5,N
1552978155.4,286047002.6,N
1552978175.2,286047001.0,N
1552978195.1,286047000.0,N
1552978196.0,286047000.0,N
1552978215.8,286046998.7,N
1552978235.6,286046998.4,N
1552978255.5,286046998.2,N
1552978275.3,286046998.3,N
1552978295.2,286046998.5,N
1552978315.0,286047001.1,N
1552978315.9,286047001.1,N
1552978335.7,286047000.9,N
1552978355.6,286046999.9,N
1552978375.4,286047002.4,N
1552978395.3,286047002.6,N
1552978415.1,286047002.0,N
1552978416.0,286047002.0,N
1552978435.8,286047002.8,N
1552978455.7,286047000.1,N
1552978475.5,286047000.5,N
1552978495.3,286046999.9,N
1552978515.2,286046998.2,N
1552978535.0,286047000.7,N
1552978535.9,286047000.7,N
1552978555.8,286046999.9,N
1552978575.6,286047004.4,N
1552978595.4,286047003.9,N
1552978615.3,286047004.4,N
1552978635.1,286047001.6,N
1552978655.8,286047001.3,N
1552978675.7,286047003.1,N
1552978695.5,286047003.0,N
1552978715.4,286047003.8,N
1552978735.2,286047003.8,N
1552978755.0,286047003.7,N
1552978755.9,286047003.7,N
1552978775.8,286047003.9,N
1552978795.6,286047001.4,N
